contact:dominique.lefevre@mio.osupytheas.fr, maurice.libes@osupytheas.fr, didier.mallarino@osupytheas.fr
Project:EMSO http://www.emso-fr.org/EMSO-France
Depth: 2436.0 m
Title:EMSO Ligure Ouest : Data MII capteur AQUADOPP
Date,Latitude,Longitude,X_East,Y_North,Z_Up,Amplitude_X,Amplitude_Y,Amplitude_Z,Batterie,SoundSpeed,Heading,Pitch,Roll,Pressure,TIS,Speed,Direction
, degrees North, degrees East, m.s-1, m.s-1,m.s-1, 1, 1, 1, Volt, m.s-1, degree, degree, degree, dbar, degree_C, m.s-1, degree
2021-01-01T00:04:03,42.805,6.029,0.031,-0.035,-0.005,105.0,108.0,102.0,13.4,1505.2,328.0,-0.8,1.9,2470.359,13.3,0.046,138.5
2021-01-01T00:07:03,42.805,6.029,0.054,-0.02,-0.01,105.0,108.0,102.0,13.3,1505.3,326.8,-0.7,1.8,2470.35,13.31,0.057,110.3
2021-01-01T00:10:03,42.805,6.029,0.045,-0.007,-0.007,105.0,109.0,102.0,13.4,1505.3,326.8,-0.7,1.8,2470.361,13.31,0.045,98.8
2021-01-01T00:13:03,42.805,6.029,0.011,-0.016,0.0,105.0,109.0,101.0,13.4,1505.3,324.1,-0.7,1.9,2470.349,13.32,0.019,145.5
2021-01-01T00:16:03,42.805,6.029,0.028,0.003,0.021,106.0,108.0,101.0,13.3,1505.3,326.9,-0.7,1.8,2470.342,13.32,0.028,83.9
2021-01-01T00:19:03,42.805,6.029,-0.012,-0.008,0.014,105.0,108.0,102.0,13.4,1505.3,326.7,-0.7,1.8,2470.322,13.32,0.014,236.3
2021-01-01T00:22:03,42.805,6.029,0.052,-0.02,0.034,105.0,108.0,102.0,13.4,1505.3,325.3,-0.7,1.8,2470.336,13.32,0.055,111.0
2021-01-01T00:25:03,42.805,6.029,0.031,-0.011,0.02,105.0,108.0,103.0,13.3,1505.3,323.6,-0.7,1.8,2470.282,13.32,0.032,109.5
2021-01-01T00:28:03,42.805,6.029,0.046,-0.026,-0.021,105.0,108.0,102.0,13.4,1505.3,324.6,-0.7,1.8,2470.309,13.32,0.052,119.5
2021-01-01T00:31:03,42.805,6.029,0.016,-0.013,-0.019,105.0,107.0,102.0,13.4,1505.3,328.1,-0.7,1.8,2470.282,13.32,0.02,129.1
2021-01-01T00:34:03,42.805,6.029,0.032,-0.018,0.022,104.0,108.0,102.0,13.4,1505.3,326.2,-0.7,1.8,2470.268,13.32,0.036,119.4
2021-01-01T00:37:03,42.805,6.029,0.034,-0.012,0.011,105.0,108.0,101.0,13.4,1505.3,325.7,-0.7,1.8,2470.309,13.32,0.036,109.4
2021-01-01T00:40:03,42.805,6.029,0.012,-0.02,0.009,105.0,107.0,101.0,13.4,1505.3,324.2,-0.7,1.8,2470.29,13.32,0.023,149.0
2021-01-01T00:43:03,42.805,6.029,0.048,-0.022,0.034,105.0,107.0,102.0,13.3,1505.3,324.7,-0.7,1.8,2470.365,13.32,0.052,114.6
2021-01-01T00:46:03,42.805,6.029,0.002,-0.025,-0.024,105.0,108.0,102.0,13.3,1505.3,326.6,-0.7,1.8,2470.286,13.32,0.025,175.4
2021-01-01T00:49:03,42.805,6.029,0.023,-0.005,0.008,105.0,107.0,101.0,13.4,1505.3,324.8,-0.7,1.8,2470.328,13.32,0.023,102.3
2021-01-01T00:52:03,42.805,6.029,0.037,-0.02,0.006,104.0,106.0,100.0,13.4,1505.3,327.6,-0.7,1.8,2470.3,13.32,0.042,118.4
2021-01-01T00:55:03,42.805,6.029,0.035,-0.016,0.025,104.0,108.0,101.0,13.3,1505.3,327.4,-0.7,1.8,2470.299,13.32,0.038,114.6
2021-01-01T00:58:03,42.805,6.029,0.053,-0.002,0.043,105.0,108.0,101.0,13.4,1505.3,327.1,-0.7,1.8,2470.314,13.32,0.053,92.2
2021-01-01T01:04:03,42.805,6.029,0.007,-0.01,0.023,106.0,108.0,103.0,13.4,1505.2,327.8,-0.7,1.8,2470.342,13.3,0.012,145.0
2021-01-01T01:07:03,42.805,6.029,-0.006,-0.026,-0.017,105.0,107.0,100.0,13.3,1505.3,326.1,-0.7,1.8,2470.361,13.31,0.026,193.0
2021-01-01T01:10:03,42.805,6.029,0.033,0.0,-0.012,105.0,107.0,101.0,13.4,1505.3,325.8,-0.7,1.8,2470.325,13.31,0.033,90.0
2021-01-01T01:13:03,42.805,6.029,0.039,-0.012,-0.01,104.0,108.0,101.0,13.4,1505.3,328.2,-0.7,1.8,2470.318,13.32,0.04,107.1
2021-01-01T01:16:03,42.805,6.029,0.038,-0.023,0.006,105.0,109.0,101.0,13.4,1505.3,326.4,-0.7,1.8,2470.313,13.32,0.044,121.2
2021-01-01T01:22:03,42.805,6.029,0.031,0.0,0.005,105.0,108.0,101.0,13.4,1505.2,324.8,-0.7,1.8,2470.36,13.3,0.03,90.0
2021-01-01T01:25:03,42.805,6.029,0.025,0.0,0.01,104.0,108.0,102.0,13.3,1505.3,324.0,-0.7,1.8,2470.321,13.31,0.025,90.0
2021-01-01T01:28:03,42.805,6.029,0.012,-0.015,0.007,104.0,108.0,103.0,13.4,1505.3,324.8,-0.7,1.8,2470.3,13.31,0.019,141.3
2021-01-01T01:31:03,42.805,6.029,0.019,-0.003,0.015,105.0,106.0,103.0,13.4,1505.3,324.3,-0.7,1.8,2470.298,13.32,0.019,99.0
2021-01-01T01:34:03,42.805,6.029,0.048,-0.005,0.041,105.0,107.0,101.0,13.4,1505.3,326.8,-0.7,1.8,2470.328,13.32,0.048,95.9
2021-01-01T01:37:03,42.805,6.029,0.052,-0.016,0.009,105.0,108.0,101.0,13.3,1505.3,326.5,-0.7,1.9,2470.327,13.32,0.054,107.1
2021-01-01T01:40:03,42.805,6.029,0.04,-0.004,0.011,105.0,108.0,101.0,13.3,1505.3,325.0,-0.7,1.8,2470.306,13.32,0.04,95.7
2021-01-01T01:43:03,42.805,6.029,0.048,-0.005,0.004,105.0,108.0,102.0,13.4,1505.3,324.3,-0.7,1.8,2470.297,13.32,0.048,95.9
2021-01-01T01:46:03,42.805,6.029,0.016,-0.042,-0.024,104.0,108.0,102.0,13.3,1505.3,325.0,-0.7,1.8,2470.301,13.32,0.044,159.1
2021-01-01T01:49:03,42.805,6.029,0.015,-0.005,-0.005,104.0,107.0,100.0,13.4,1505.3,323.7,-0.7,1.8,2470.262,13.32,0.015,108.4
2021-01-01T01:52:03,42.805,6.029,0.039,-0.018,-0.029,104.0,107.0,102.0,13.4,1505.3,327.1,-0.7,1.8,2470.286,13.32,0.042,114.8
2021-01-01T01:55:03,42.805,6.029,0.033,-0.008,0.006,105.0,108.0,101.0,13.4,1505.3,323.8,-0.7,1.9,2470.319,13.32,0.033,103.6
2021-01-01T01:58:03,42.805,6.029,0.017,-0.009,0.012,106.0,106.0,102.0,13.4,1505.3,323.7,-0.7,1.8,2470.278,13.32,0.019,117.9
2021-01-01T02:04:03,42.805,6.029,0.059,-0.001,0.037,104.0,108.0,102.0,13.4,1505.2,323.8,-0.8,1.8,2470.319,13.3,0.059,91.0
2021-01-01T02:07:03,42.805,6.029,0.0,-0.018,-0.019,105.0,108.0,101.0,13.4,1505.3,325.3,-0.7,1.8,2470.283,13.31,0.018,180.0
2021-01-01T02:10:03,42.805,6.029,0.012,-0.015,-0.02,106.0,108.0,102.0,13.3,1505.3,325.8,-0.7,1.8,2470.317,13.31,0.019,141.3
2021-01-01T02:13:03,42.805,6.029,0.004,-0.005,0.02,105.0,108.0,102.0,13.4,1505.3,324.2,-0.7,1.8,2470.324,13.32,0.006,141.3
2021-01-01T02:16:03,42.805,6.029,0.038,-0.003,0.006,106.0,107.0,101.0,13.4,1505.3,326.4,-0.7,1.8,2470.309,13.32,0.038,94.5
2021-01-01T02:19:03,42.805,6.029,-0.014,-0.008,-0.026,105.0,109.0,102.0,13.4,1505.3,327.1,-0.7,1.8,2470.287,13.32,0.016,240.3
2021-01-01T02:22:03,42.805,6.029,0.02,-0.016,0.006,104.0,110.0,103.0,13.3,1505.3,323.1,-0.7,1.8,2470.311,13.32,0.025,128.7
2021-01-01T02:25:03,42.805,6.029,0.038,-0.005,0.048,104.0,107.0,103.0,13.3,1505.3,324.7,-0.7,1.8,2470.319,13.32,0.038,97.5
2021-01-01T02:28:03,42.805,6.029,0.03,-0.006,0.012,105.0,107.0,101.0,13.3,1505.3,325.8,-0.8,1.8,2470.248,13.32,0.03,101.3
2021-01-01T02:31:03,42.805,6.029,0.018,-0.03,-0.005,105.0,108.0,101.0,13.4,1505.3,327.0,-0.7,1.8,2470.307,13.32,0.034,149.0
2021-01-01T02:34:03,42.805,6.029,0.009,-0.005,-0.01,105.0,108.0,101.0,13.4,1505.3,324.0,-0.7,1.8,2470.288,13.32,0.01,119.1
2021-01-01T02:37:03,42.805,6.029,0.017,-0.016,-0.023,104.0,108.0,101.0,13.3,1505.3,323.4,-0.7,1.8,2470.286,13.32,0.023,133.3
2021-01-01T02:40:03,42.805,6.029,0.014,-0.013,0.042,105.0,108.0,101.0,13.4,1505.3,326.3,-0.7,1.9,2470.321,13.32,0.019,132.9
2021-01-01T02:43:03,42.805,6.029,0.01,0.015,-0.003,105.0,107.0,103.0,13.3,1505.3,324.3,-0.7,1.9,2470.293,13.32,0.018,33.7
2021-01-01T02:46:03,42.805,6.029,0.016,-0.018,0.013,105.0,109.0,102.0,13.3,1505.3,326.8,-0.7,1.8,2470.283,13.32,0.024,138.4
2021-01-01T02:49:03,42.805,6.029,0.037,-0.011,0.008,105.0,108.0,102.0,13.4,1505.3,327.8,-0.7,1.8,2470.283,13.32,0.038,106.6
2021-01-01T02:52:03,42.805,6.029,0.019,-0.009,0.02,105.0,108.0,102.0,13.3,1505.3,324.7,-0.7,1.8,2470.276,13.32,0.021,115.3
2021-01-01T02:55:03,42.805,6.029,0.035,-0.012,0.042,104.0,109.0,102.0,13.4,1505.3,323.6,-0.7,1.9,2470.31,13.32,0.037,108.9
2021-01-01T02:58:03,42.805,6.029,0.02,-0.017,0.02,105.0,108.0,102.0,13.4,1505.3,326.8,-0.7,1.8,2470.301,13.32,0.026,130.4
2021-01-01T03:04:03,42.805,6.029,0.031,-0.006,0.004,105.0,108.0,102.0,13.4,1505.2,324.3,-0.7,1.8,2470.338,13.3,0.031,101.0
2021-01-01T03:07:03,42.805,6.029,0.031,0.0,-0.02,105.0,108.0,100.0,13.4,1505.3,326.9,-0.7,1.8,2470.292,13.31,0.03,90.0
2021-01-01T03:10:03,42.805,6.029,0.021,-0.026,0.002,106.0,107.0,102.0,13.4,1505.3,324.7,-0.7,1.8,2470.324,13.31,0.033,141.1
2021-01-01T03:13:03,42.805,6.029,0.008,0.006,-0.008,105.0,107.0,102.0,13.4,1505.3,325.1,-0.7,1.8,2470.355,13.32,0.01,53.1
2021-01-01T03:16:03,42.805,6.029,0.022,-0.023,-0.02,105.0,107.0,101.0,13.4,1505.3,326.7,-0.7,1.8,2470.346,13.32,0.031,136.3
2021-01-01T03:19:03,42.805,6.029,0.04,-0.02,-0.03,105.0,107.0,102.0,13.4,1505.3,327.7,-0.7,1.8,2470.325,13.32,0.044,116.6
2021-01-01T03:22:03,42.805,6.029,0.009,-0.008,0.005,105.0,108.0,102.0,13.3,1505.3,325.6,-0.7,1.8,2470.303,13.32,0.012,131.6
2021-01-01T03:25:03,42.805,6.029,0.0,-0.024,-0.026,103.0,108.0,102.0,13.4,1505.3,327.5,-0.7,1.8,2470.292,13.32,0.024,180.0
2021-01-01T03:28:03,42.805,6.029,0.013,-0.02,0.02,105.0,107.0,103.0,13.3,1505.3,324.5,-0.7,1.8,2470.276,13.32,0.023,147.0
2021-01-01T03:31:03,42.805,6.029,0.003,0.002,-0.022,106.0,106.0,101.0,13.4,1505.3,323.5,-0.7,1.8,2470.284,13.32,0.003,56.3
2021-01-01T03:34:03,42.805,6.029,0.016,-0.019,-0.029,105.0,108.0,101.0,13.4,1505.3,327.0,-0.7,1.8,2470.309,13.32,0.024,139.9
2021-01-01T03:37:03,42.805,6.029,0.012,-0.021,-0.016,106.0,108.0,101.0,13.4,1505.3,325.1,-0.7,1.8,2470.261,13.32,0.024,150.3
2021-01-01T03:40:03,42.805,6.029,0.034,-0.009,0.015,105.0,108.0,102.0,13.4,1505.3,326.8,-0.7,1.8,2470.304,13.32,0.035,104.8
2021-01-01T03:43:03,42.805,6.029,0.003,-0.011,-0.022,104.0,108.0,102.0,13.4,1505.3,326.4,-0.7,1.8,2470.304,13.32,0.011,164.7
2021-01-01T03:46:03,42.805,6.029,0.025,-0.019,0.003,105.0,107.0,102.0,13.4,1505.3,327.1,-0.7,1.8,2470.301,13.32,0.031,127.2
2021-01-01T03:49:03,42.805,6.029,0.023,-0.02,-0.013,107.0,107.0,101.0,13.4,1505.3,327.2,-0.7,1.8,2470.313,13.32,0.03,131.0
2021-01-01T03:52:03,42.805,6.029,0.03,-0.014,0.008,103.0,109.0,101.0,13.3,1505.3,327.4,-0.7,1.8,2470.268,13.32,0.033,115.0
2021-01-01T03:55:03,42.805,6.029,0.035,-0.023,0.006,105.0,107.0,102.0,13.4,1505.3,324.8,-0.7,1.9,2470.299,13.32,0.041,123.3
2021-01-01T03:58:03,42.805,6.029,0.048,-0.02,0.007,105.0,109.0,102.0,13.4,1505.3,325.4,-0.7,1.8,2470.294,13.32,0.052,112.6
2021-01-01T04:04:03,42.805,6.029,-0.002,0.003,0.02,105.0,108.0,101.0,13.4,1505.2,324.4,-0.7,1.8,2470.367,13.3,0.003,326.3
2021-01-01T04:07:03,42.805,6.029,0.036,-0.011,0.005,106.0,109.0,101.0,13.4,1505.3,327.2,-0.7,1.9,2470.334,13.31,0.037,107.0
2021-01-01T04:10:03,42.805,6.029,0.012,0.003,0.011,104.0,108.0,102.0,13.3,1505.3,326.0,-0.7,1.8,2470.333,13.31,0.012,76.0
2021-01-01T04:13:03,42.805,6.029,0.027,-0.005,0.025,105.0,107.0,103.0,13.3,1505.3,327.7,-0.7,1.8,2470.33,13.32,0.027,100.5
2021-01-01T04:16:03,42.805,6.029,-0.005,-0.02,-0.021,105.0,107.0,102.0,13.4,1505.3,323.4,-0.7,1.8,2470.323,13.32,0.02,194.0
2021-01-01T04:19:03,42.805,6.029,0.0,-0.016,0.005,105.0,107.0,101.0,13.4,1505.3,326.4,-0.7,1.8,2470.353,13.32,0.016,180.0
2021-01-01T04:22:03,42.805,6.029,0.009,-0.024,-0.018,105.0,107.0,103.0,13.3,1505.3,323.0,-0.7,1.8,2470.306,13.32,0.025,159.4
2021-01-01T04:25:03,42.805,6.029,0.025,-0.021,-0.005,104.0,108.0,101.0,13.3,1505.3,328.2,-0.7,1.8,2470.356,13.32,0.032,130.0
2021-01-01T04:28:03,42.805,6.029,0.044,-0.015,-0.012,105.0,107.0,102.0,13.3,1505.3,324.9,-0.7,1.8,2470.309,13.32,0.046,108.8
2021-01-01T04:31:03,42.805,6.029,0.025,-0.03,0.012,104.0,109.0,102.0,13.4,1505.3,328.3,-0.7,1.8,2470.363,13.32,0.039,140.2
2021-01-01T04:34:03,42.805,6.029,0.021,-0.033,-0.014,105.0,107.0,102.0,13.4,1505.3,327.2,-0.7,1.8,2470.32,13.32,0.039,147.5
2021-01-01T04:37:03,42.805,6.029,0.023,-0.009,0.02,106.0,107.0,102.0,13.4,1505.3,326.9,-0.7,1.8,2470.334,13.32,0.024,111.4
2021-01-01T04:40:03,42.805,6.029,0.021,-0.007,0.013,105.0,107.0,101.0,13.4,1505.3,326.1,-0.7,1.8,2470.328,13.32,0.022,108.4
2021-01-01T04:43:03,42.805,6.029,0.022,0.02,0.005,105.0,108.0,101.0,13.3,1505.3,326.2,-0.7,1.8,2470.321,13.32,0.029,47.7
2021-01-01T04:46:03,42.805,6.029,0.027,-0.003,0.033,104.0,109.0,102.0,13.4,1505.3,326.5,-0.7,1.8,2470.347,13.32,0.027,96.3
2021-01-01T04:49:03,42.805,6.029,0.01,-0.009,-0.045,105.0,108.0,102.0,13.4,1505.3,327.1,-0.7,1.8,2470.395,13.32,0.013,132.0
2021-01-01T04:52:03,42.805,6.029,0.021,-0.017,-0.036,105.0,108.0,101.0,13.4,1505.3,327.8,-0.7,1.8,2470.369,13.32,0.027,129.0
2021-01-01T04:55:03,42.805,6.029,0.0,-0.034,-0.025,106.0,106.0,103.0,13.4,1505.3,327.9,-0.7,1.8,2470.3,13.32,0.034,180.0
2021-01-01T04:58:03,42.805,6.029,0.017,-0.03,0.028,104.0,108.0,102.0,13.3,1505.3,325.7,-0.7,1.8,2470.382,13.32,0.034,150.5
2021-01-01T05:04:03,42.805,6.029,0.022,0.014,-0.024,105.0,109.0,102.0,13.4,1505.2,325.5,-0.8,1.8,2470.395,13.3,0.026,57.5
2021-01-01T05:07:03,42.805,6.029,0.043,-0.025,0.009,105.0,107.0,101.0,13.4,1505.3,327.9,-0.7,1.8,2470.387,13.31,0.049,120.2
2021-01-01T05:10:03,42.805,6.029,0.035,-0.005,0.016,103.0,109.0,102.0,13.4,1505.3,327.7,-0.7,1.8,2470.43,13.31,0.035,98.1
2021-01-01T05:13:03,42.805,6.029,0.03,-0.011,0.003,104.0,108.0,101.0,13.4,1505.3,324.9,-0.7,1.8,2470.407,13.32,0.031,110.1
2021-01-01T05:16:03,42.805,6.029,0.018,-0.031,-0.001,106.0,107.0,103.0,13.3,1505.3,324.8,-0.7,1.8,2470.395,13.32,0.035,149.9
2021-01-01T05:19:03,42.805,6.029,0.024,-0.008,0.023,104.0,107.0,101.0,13.4,1505.3,324.8,-0.7,1.8,2470.414,13.32,0.025,108.4
2021-01-01T05:22:03,42.805,6.029,0.009,-0.018,-0.027,103.0,108.0,101.0,13.4,1505.3,324.3,-0.7,1.8,2470.409,13.32,0.02,153.4
2021-01-01T05:25:03,42.805,6.029,0.014,-0.009,-0.001,105.0,107.0,101.0,13.4,1505.3,325.9,-0.7,1.9,2470.4,13.32,0.016,122.7
2021-01-01T05:28:03,42.805,6.029,0.038,-0.023,-0.008,104.0,107.0,102.0,13.4,1505.3,325.0,-0.7,1.8,2470.395,13.32,0.044,121.2
2021-01-01T05:31:03,42.805,6.029,0.062,-0.014,0.021,104.0,107.0,101.0,13.4,1505.3,322.8,-0.7,1.8,2470.407,13.32,0.063,102.7
2021-01-01T05:34:03,42.805,6.029,0.033,0.0,-0.018,105.0,107.0,103.0,13.3,1505.3,327.4,-0.7,1.8,2470.434,13.32,0.033,90.0
2021-01-01T05:37:03,42.805,6.029,0.011,-0.028,-0.008,105.0,107.0,103.0,13.3,1505.3,326.7,-0.7,1.8,2470.407,13.32,0.03,158.6
2021-01-01T05:40:03,42.805,6.029,0.015,-0.005,0.007,105.0,108.0,102.0,13.4,1505.3,328.1,-0.7,1.7,2470.426,13.32,0.015,108.4
2021-01-01T05:43:03,42.805,6.029,0.025,-0.001,0.015,104.0,107.0,102.0,13.3,1505.3,322.9,-0.7,1.8,2470.446,13.32,0.025,92.3
2021-01-01T05:46:03,42.805,6.029,0.03,-0.01,-0.009,105.0,108.0,101.0,13.4,1505.3,325.3,-0.7,1.8,2470.381,13.32,0.031,108.4
2021-01-01T05:49:03,42.805,6.029,0.052,-0.012,0.015,103.0,108.0,102.0,13.4,1505.3,325.0,-0.7,1.8,2470.43,13.32,0.053,103.0
2021-01-01T05:52:03,42.805,6.029,0.01,-0.016,0.001,105.0,107.0,101.0,13.3,1505.3,327.4,-0.7,1.8,2470.419,13.32,0.018,148.0
2021-01-01T05:55:03,42.805,6.029,0.018,-0.015,0.014,104.0,107.0,102.0,13.4,1505.3,326.6,-0.7,1.8,2470.451,13.32,0.023,129.8
2021-01-01T05:58:03,42.805,6.029,0.043,0.0,0.017,105.0,107.0,101.0,13.4,1505.3,327.1,-0.7,1.8,2470.415,13.32,0.043,90.0
2021-01-01T06:04:03,42.805,6.029,0.036,-0.015,-0.003,104.0,108.0,100.0,13.4,1505.2,325.4,-0.8,1.8,2470.493,13.3,0.039,112.6
2021-01-01T06:07:03,42.805,6.029,-0.003,-0.016,0.012,104.0,106.0,102.0,13.4,1505.3,324.3,-0.7,1.8,2470.441,13.31,0.016,190.6
2021-01-01T06:10:03,42.805,6.029,0.056,0.007,0.016,104.0,107.0,101.0,13.3,1505.3,326.7,-0.7,1.8,2470.465,13.31,0.056,82.9
2021-01-01T06:13:03,42.805,6.029,0.015,-0.008,0.0,104.0,108.0,102.0,13.4,1505.3,326.8,-0.7,1.8,2470.481,13.32,0.017,118.1
2021-01-01T06:16:03,42.805,6.029,0.039,-0.013,-0.003,105.0,108.0,101.0,13.4,1505.3,323.9,-0.7,1.9,2470.47,13.32,0.041,108.4
2021-01-01T06:19:03,42.805,6.029,0.021,-0.009,0.028,106.0,107.0,101.0,13.4,1505.3,325.3,-0.7,1.8,2470.449,13.32,0.022,113.2
2021-01-01T06:22:03,42.805,6.029,0.012,-0.029,-0.018,104.0,107.0,102.0,13.4,1505.3,326.5,-0.7,1.8,2470.464,13.32,0.031,157.5
2021-01-01T06:25:03,42.805,6.029,0.028,-0.019,-0.016,105.0,107.0,101.0,13.3,1505.3,327.4,-0.7,1.8,2470.516,13.32,0.033,124.2
2021-01-01T06:28:03,42.805,6.029,0.019,-0.005,0.008,103.0,107.0,102.0,13.3,1505.3,326.7,-0.7,1.8,2470.53,13.32,0.019,104.7
2021-01-01T06:31:03,42.805,6.029,0.016,-0.014,-0.015,103.0,107.0,100.0,13.4,1505.3,324.0,-0.7,1.8,2470.459,13.32,0.021,131.2
2021-01-01T06:34:03,42.805,6.029,0.045,-0.008,0.024,103.0,107.0,101.0,13.4,1505.3,323.0,-0.7,1.8,2470.491,13.32,0.045,100.1
2021-01-01T06:37:03,42.805,6.029,0.011,-0.013,-0.025,105.0,106.0,102.0,13.4,1505.3,323.9,-0.7,1.8,2470.472,13.32,0.017,139.8
2021-01-01T06:40:03,42.805,6.029,0.001,-0.005,-0.024,104.0,107.0,102.0,13.4,1505.3,326.0,-0.7,1.9,2470.455,13.32,0.005,168.7
2021-01-01T06:43:03,42.805,6.029,0.026,-0.012,0.017,105.0,106.0,102.0,13.4,1505.3,327.1,-0.7,1.8,2470.446,13.32,0.028,114.8
2021-01-01T06:46:03,42.805,6.029,0.02,-0.016,-0.018,105.0,107.0,102.0,13.3,1505.3,326.3,-0.7,1.8,2470.477,13.32,0.025,128.7
2021-01-01T06:49:03,42.805,6.029,0.012,-0.018,-0.049,105.0,106.0,100.0,13.4,1505.3,323.1,-0.7,1.8,2470.478,13.32,0.021,146.3
2021-01-01T06:52:03,42.805,6.029,0.037,0.008,0.025,104.0,107.0,101.0,13.3,1505.3,326.0,-0.7,1.8,2470.479,13.32,0.037,77.8
2021-01-01T06:55:03,42.805,6.029,0.01,-0.029,-0.01,103.0,109.0,103.0,13.4,1505.3,326.7,-0.7,1.8,2470.503,13.32,0.03,161.0
2021-01-01T06:58:03,42.805,6.029,0.026,-0.026,0.013,105.0,106.0,102.0,13.3,1505.3,327.7,-0.7,1.8,2470.49,13.32,0.036,135.0
2021-01-01T07:04:03,42.805,6.029,0.024,-0.002,0.01,105.0,107.0,101.0,13.4,1505.2,325.4,-0.7,1.9,2470.551,13.3,0.024,94.8
2021-01-01T07:07:03,42.805,6.029,0.025,-0.03,0.018,104.0,108.0,102.0,13.4,1505.3,325.4,-0.7,1.8,2470.543,13.31,0.039,140.2
2021-01-01T07:10:03,42.805,6.029,0.043,-0.004,0.038,104.0,106.0,103.0,13.4,1505.3,325.7,-0.7,1.8,2470.487,13.31,0.043,95.3
2021-01-01T07:13:03,42.805,6.029,-0.003,0.006,-0.001,104.0,106.0,101.0,13.3,1505.3,325.0,-0.7,1.8,2470.51,13.32,0.006,333.4
2021-01-01T07:16:03,42.805,6.029,0.016,-0.017,0.01,104.0,109.0,102.0,13.4,1505.3,327.3,-0.7,1.8,2470.546,13.32,0.023,136.7
2021-01-01T07:19:03,42.805,6.029,-0.009,-0.008,-0.005,103.0,108.0,101.0,13.4,1505.3,325.8,-0.7,1.8,2470.53,13.32,0.012,228.4
2021-01-01T07:22:03,42.805,6.029,-0.016,-0.01,-0.002,103.0,108.0,103.0,13.4,1505.3,327.2,-0.7,1.8,2470.537,13.32,0.018,238.0
2021-01-01T07:25:03,42.805,6.029,0.004,-0.006,-0.026,103.0,109.0,100.0,13.4,1505.3,326.1,-0.7,1.8,2470.517,13.32,0.007,146.3
2021-01-01T07:28:03,42.805,6.029,0.0,-0.013,0.016,102.0,107.0,101.0,13.4,1505.3,328.0,-0.7,1.8,2470.542,13.32,0.013,180.0
2021-01-01T07:31:03,42.805,6.029,0.024,0.006,0.004,103.0,107.0,101.0,13.3,1505.3,325.5,-0.7,1.9,2470.525,13.32,0.024,76.0
2021-01-01T07:34:03,42.805,6.029,0.023,-0.002,0.038,102.0,107.0,102.0,13.4,1505.3,325.9,-0.7,1.8,2470.545,13.32,0.023,95.0
2021-01-01T07:37:03,42.805,6.029,0.009,-0.024,-0.013,104.0,107.0,101.0,13.4,1505.3,323.0,-0.7,1.8,2470.56,13.32,0.025,159.4
2021-01-01T07:40:03,42.805,6.029,0.029,-0.02,0.005,104.0,107.0,102.0,13.4,1505.3,326.3,-0.7,1.8,2470.55,13.32,0.035,124.6
2021-01-01T07:43:03,42.805,6.029,0.012,-0.021,0.018,104.0,108.0,103.0,13.4,1505.3,323.6,-0.7,1.8,2470.558,13.32,0.024,150.3
2021-01-01T07:46:03,42.805,6.029,0.004,-0.014,-0.015,104.0,109.0,102.0,13.4,1505.3,324.5,-0.7,1.8,2470.518,13.32,0.014,164.1
2021-01-01T07:49:03,42.805,6.029,-0.001,-0.013,-0.011,104.0,112.0,101.0,13.4,1505.3,325.7,-0.7,1.9,2470.521,13.32,0.013,184.4
2021-01-01T07:52:03,42.805,6.029,0.014,-0.01,0.019,105.0,106.0,102.0,13.4,1505.3,326.0,-0.7,1.8,2470.534,13.32,0.017,125.5
2021-01-01T07:55:03,42.805,6.029,-0.002,-0.022,0.0,104.0,109.0,101.0,13.3,1505.3,324.7,-0.7,1.8,2470.538,13.32,0.022,185.2
2021-01-01T07:58:03,42.805,6.029,0.01,-0.034,0.016,104.0,108.0,102.0,13.3,1505.3,328.4,-0.7,1.8,2470.539,13.33,0.035,163.6
2021-01-01T08:04:03,42.805,6.029,0.007,-0.016,-0.017,104.0,110.0,101.0,13.4,1505.2,326.3,-0.7,1.8,2470.584,13.3,0.017,156.4
2021-01-01T08:07:03,42.805,6.029,-0.018,-0.018,-0.026,105.0,108.0,101.0,13.4,1505.3,328.1,-0.7,1.8,2470.524,13.31,0.025,225.0
2021-01-01T08:10:03,42.805,6.029,-0.015,-0.021,-0.038,103.0,110.0,101.0,13.4,1505.3,323.6,-0.7,1.8,2470.57,13.32,0.025,215.5
2021-01-01T08:13:03,42.805,6.029,0.009,-0.001,-0.005,103.0,108.0,102.0,13.3,1505.3,326.6,-0.7,1.8,2470.564,13.32,0.009,96.3
2021-01-01T08:16:03,42.805,6.029,-0.02,-0.013,-0.046,104.0,109.0,100.0,13.3,1505.3,326.0,-0.7,1.8,2470.624,13.32,0.023,237.0
2021-01-01T08:19:03,42.805,6.029,0.03,-0.031,0.001,104.0,106.0,101.0,13.3,1505.3,327.5,-0.7,1.8,2470.59,13.32,0.043,135.9
2021-01-01T08:22:03,42.805,6.029,-0.001,-0.026,-0.026,104.0,108.0,101.0,13.4,1505.3,323.2,-0.7,1.8,2470.527,13.32,0.026,182.2
2021-01-01T08:25:03,42.805,6.029,0.005,-0.022,-0.013,104.0,107.0,101.0,13.4,1505.3,326.5,-0.7,1.8,2470.561,13.32,0.022,167.2
2021-01-01T08:28:03,42.805,6.029,0.019,-0.008,0.029,105.0,106.0,102.0,13.4,1505.3,323.4,-0.7,1.8,2470.57,13.32,0.02,112.8
2021-01-01T08:31:03,42.805,6.029,-0.006,-0.033,-0.022,103.0,108.0,101.0,13.4,1505.3,325.3,-0.7,1.8,2470.585,13.32,0.033,190.3
2021-01-01T08:34:03,42.805,6.029,0.008,-0.008,0.0,104.0,108.0,101.0,13.4,1505.3,326.4,-0.7,1.8,2470.533,13.33,0.011,135.0
2021-01-01T08:37:03,42.805,6.029,0.013,0.0,-0.001,105.0,106.0,102.0,13.3,1505.3,327.5,-0.7,1.8,2470.57,13.33,0.013,90.0
2021-01-01T08:40:03,42.805,6.029,0.008,-0.011,0.021,104.0,107.0,102.0,13.3,1505.3,325.7,-0.7,1.8,2470.562,13.32,0.013,144.0
2021-01-01T08:43:03,42.805,6.029,-0.006,-0.016,0.003,105.0,107.0,102.0,13.4,1505.3,325.7,-0.7,1.8,2470.518,13.33,0.017,200.6
2021-01-01T08:46:03,42.805,6.029,0.014,-0.004,-0.008,103.0,106.0,102.0,13.4,1505.3,325.5,-0.7,1.8,2470.558,13.33,0.014,105.9
2021-01-01T08:49:03,42.805,6.029,0.007,-0.018,0.001,104.0,106.0,101.0,13.4,1505.3,327.1,-0.7,1.9,2470.6,13.33,0.019,158.8
2021-01-01T08:52:03,42.805,6.029,0.01,-0.012,-0.008,104.0,109.0,100.0,13.4,1505.3,323.9,-0.7,1.9,2470.594,13.33,0.015,140.2
2021-01-01T08:55:03,42.805,6.029,0.013,-0.012,0.006,105.0,107.0,102.0,13.4,1505.3,326.1,-0.7,1.8,2470.552,13.33,0.017,132.7
2021-01-01T08:58:03,42.805,6.029,0.018,-0.004,0.024,103.0,106.0,102.0,13.3,1505.3,324.4,-0.7,1.8,2470.579,13.33,0.018,102.5
2021-01-01T09:04:03,42.805,6.029,0.013,-0.013,-0.008,104.0,108.0,101.0,13.4,1505.3,325.0,-0.8,1.8,2470.641,13.31,0.018,135.0
2021-01-01T09:07:03,42.805,6.029,-0.008,-0.019,-0.003,103.0,107.0,100.0,13.4,1505.3,328.2,-0.7,1.8,2470.604,13.31,0.02,202.8
2021-01-01T09:10:03,42.805,6.029,0.006,-0.006,0.003,104.0,107.0,101.0,13.4,1505.3,323.5,-0.7,1.8,2470.596,13.32,0.008,135.0
2021-01-01T09:13:03,42.805,6.029,0.02,0.002,0.013,105.0,107.0,101.0,13.4,1505.3,325.5,-0.7,1.8,2470.616,13.32,0.02,84.3
2021-01-01T09:16:03,42.805,6.029,0.009,-0.001,-0.001,105.0,107.0,102.0,13.4,1505.3,324.1,-0.7,1.8,2470.622,13.32,0.009,96.3
2021-01-01T09:19:03,42.805,6.029,0.02,-0.027,0.043,105.0,107.0,101.0,13.3,1505.3,327.6,-0.7,1.8,2470.566,13.32,0.033,143.5
2021-01-01T09:22:03,42.805,6.029,-0.013,-0.02,-0.004,104.0,107.0,101.0,13.3,1505.3,326.3,-0.7,1.8,2470.58,13.32,0.023,213.0
2021-01-01T09:25:03,42.805,6.029,0.015,-0.02,0.018,102.0,108.0,103.0,13.4,1505.3,324.5,-0.7,1.8,2470.581,13.32,0.025,143.1
2021-01-01T09:28:03,42.805,6.029,0.008,0.006,0.023,103.0,107.0,101.0,13.4,1505.3,324.5,-0.7,1.8,2470.559,13.32,0.01,53.1
2021-01-01T09:31:03,42.805,6.029,0.042,-0.029,0.031,105.0,108.0,101.0,13.4,1505.3,326.5,-0.7,1.8,2470.61,13.32,0.051,124.6
2021-01-01T09:34:03,42.805,6.029,0.017,0.008,0.012,105.0,106.0,102.0,13.4,1505.3,327.8,-0.7,1.9,2470.575,13.32,0.018,64.8
2021-01-01T09:37:03,42.805,6.029,0.05,-0.009,0.016,104.0,106.0,102.0,13.3,1505.3,326.4,-0.7,1.8,2470.555,13.32,0.05,100.2
2021-01-01T09:40:03,42.805,6.029,0.046,0.021,0.004,103.0,106.0,102.0,13.3,1505.3,323.2,-0.8,1.8,2470.568,13.32,0.05,65.5
2021-01-01T09:43:03,42.805,6.029,0.029,-0.024,0.016,104.0,107.0,101.0,13.4,1505.3,323.2,-0.7,1.8,2470.583,13.32,0.037,129.6
2021-01-01T09:46:03,42.805,6.029,0.052,-0.013,0.056,104.0,107.0,102.0,13.3,1505.3,323.6,-0.7,1.8,2470.618,13.32,0.053,104.0
2021-01-01T09:49:03,42.805,6.029,0.014,-0.006,-0.003,105.0,109.0,102.0,13.3,1505.3,325.9,-0.7,1.8,2470.632,13.32,0.015,113.2
2021-01-01T09:52:03,42.805,6.029,0.045,0.003,0.039,105.0,108.0,102.0,13.4,1505.3,325.6,-0.7,1.9,2470.586,13.32,0.045,86.2
2021-01-01T09:55:03,42.805,6.029,0.034,0.002,0.048,105.0,110.0,101.0,13.4,1505.3,325.3,-0.7,1.9,2470.599,13.32,0.034,86.6
2021-01-01T09:58:03,42.805,6.029,0.012,0.002,-0.013,104.0,109.0,101.0,13.3,1505.3,324.4,-0.7,1.9,2470.568,13.32,0.012,80.5
2021-01-01T10:04:03,42.805,6.029,0.037,-0.013,0.023,106.0,109.0,102.0,13.4,1505.2,327.9,-0.7,1.8,2470.606,13.3,0.039,109.4